Location: Les Gen�tes
(46.3104°N, 1.5969°E)
Time: 22:43:01
(UTC+00:00)

Aureole 2 - Pass Details

Date: 01 June 2020
Orbit: 367 x 899 km, 73.9° (Epoch: 13 July)

Event Time Altitude Azimuth Distance (km) Brightness Sun altitude
Rises 20:54:06 0° 340° (NNW) 2,380 9.5 -10.6°
Reaches altitude 10° 20:56:15 10° 344° (NNW) 1,457 8.1 -10.8°
Maximum altitude 20:59:21 63° 66° (ENE) 427 4.2 -11.2°
Enters shadow 21:01:14 20° 145° (SE) 934 5.4 -11.4°
